This demonstration page uses our WeatherBlox Daily Observations layout. Learn more.

Left ArrowRight Arrow

Hourly Observations for June 10, 2023

Temp ( °F °C ) Dew Point ( °F °C ) Humidity (%) Winds ( mph kmh ) Pressure ( in mb ) Visibility ( mi km ) Precip ( " mm )
12:53 am 00:53 Clear 66 18.9 39 3.9 37 37 SW 8 13 29.83 1010 10 16 0.00 0.00
1:53 am 01:53 Clear 66 18.9 37 2.8 34 34 SW 8 13 29.82 1010 10 16 0.00 0.00
2:53 am 02:53 Clear 66 18.9 36 2.2 33 33 SW 5 7 29.81 1010 10 16 0.00 0.00
3:53 am 03:53 Clear 64 17.8 35 1.7 34 34 SW 5 7 29.80 1009 10 16 0.00 0.00
4:53 am 04:53 Mostly Clear 63 17.2 38 3.3 39 39 SW 5 7 29.81 1010 10 16 0.00 0.00
5:53 am 05:53 Mostly Sunny 62 16.7 40 4.4 44 44 SW 6 9 29.81 1009 10 16 0.00 0.00
6:53 am 06:53 Mostly Sunny 65 18.3 42 5.6 43 43 SSW 5 7 29.81 1010 10 16 0.00 0.00
7:53 am 07:53 Partly Cloudy 70 21.1 44 6.7 39 39 SW 6 9 29.81 1010 10 16 0.00 0.00
8:53 am 08:53 Partly Cloudy 74 23.3 43 6.1 33 33 SW 6 9 29.81 1010 10 16 0.00 0.00
9:53 am 09:53 Mostly Cloudy 78 25.6 44 6.7 30 30 W 7 11 29.81 1009 10 16 0.00 0.00
10:53 am 10:53 Mostly Cloudy 81 27.2 43 6.1 26 26 SW 9 15 29.80 1009 10 16 0.00 0.00
11:53 am 11:53 Partly Cloudy 82 27.8 41 5 23 23 W 7 11 29.79 1009 10 16 0.00 0.00
12:53 pm 12:53 Partly Cloudy 84 28.9 42 5.6 23 23 W 10 17 29.78 1008 10 16 0.00 0.00
1:53 pm 13:53 Partly Cloudy 84 28.9 42 5.6 23 23 S 12 19 29.77 1008 10 16 0.00 0.00
2:53 pm 14:53 Partly Cloudy 84 28.9 41 5 22 22 VRB 6 9 29.75 1008 10 16 0.00 0.00
3:53 pm 15:53 Mostly Cloudy 86 30 40 4.4 20 20 SW 6 9 29.72 1007 10 16 0.00 0.00
4:53 pm 16:53 Mostly Cloudy 85 29.4 41 5 21 21 W 8 13 29.72 1006 10 16 0.00 0.00
5:53 pm 17:53 Mostly Cloudy 85 29.4 40 4.4 20 20 SW 10 17 29.71 1006 10 16 0.00 0.00
6:53 pm 18:53 Mostly Cloudy 82 27.8 40 4.4 22 22 WSW 6 9 29.72 1006 10 16 0.00 0.00
7:53 pm 19:53 Mostly Cloudy 78 25.6 43 6.1 29 29 E 12 19 29.72 1006 10 16 0.00 0.00
8:53 pm 20:53 Mostly Cloudy 78 25.6 43 6.1 29 29 ENE 6 9 29.72 1006 10 16 0.00 0.00
9:53 pm 21:53 Mostly Cloudy 76 24.4 45 7.2 33 33 E 5 7 29.73 1007 10 16 0.00 0.00
10:53 pm 22:53 Mostly Cloudy 74 23.3 46 7.8 37 37 E 5 7 29.72 1006 10 16 0.00 0.00
11:53 pm 23:53 Mostly Cloudy 74 23.3 47 8.3 38 38 E 3 6 29.71 1006 10 16 0.00 0.00

Powered by Vaisala Xweather